Weather History for Garden City, KS

Change the Weather History Date:

Monday, February 24, 2014

  Actual Average Record
Temperature  
Mean Temperature 32 °F 37 °F  
Max Temperature 50 °F 51 °F 80 °F (1981)
Min Temperature 14 °F 24 °F -6 °F (2003)
Degree Days  
Heating Degree Days 33 28  
Month to date heating degree days 875 739  
Since 1 July heating degree days 4040 3919  
Cooling Degree Days 0 0  
Month to date cooling degree days 0 0  
Year to date cooling degree days 0 0  
Moisture  
Dew Point 17 °F    
Average Humidity 63    
Maximum Humidity 91    
Minimum Humidity 34    
Precipitation  
Precipitation 0.00 in 0.02 in 0.55 in (1951)
Month to date precipitation 0.13 0.45  
Year to date precipitation 0.16 0.79  
Sea Level Pressure  
Sea Level Pressure 30.18 in    
Wind  
Wind Speed 12 mph (ESE)    
Max Wind Speed 31 mph    
Max Gust Speed 39 mph    
Visibility 10 miles    
Events      
T = Trace of Precipitation, MM = Missing Value Source: NWS Daily Summary

Daily Weather History Graph

Daily Weather History Graph

Search for Another Location

Airport:

Trip Planner

Search our weather history database for the weather conditions in past years. The results will help you decide how hot, cold, wet, or windy it might be!

Date:

Astronomy

Feb. 24, 2014 Rise Set
Actual Time 7:21 AM CST 6:31 PM CST
Civil Twilight 6:54 AM CST 6:57 PM CST
Nautical Twilight 6:24 AM CST 7:28 PM CST
Astronomical Twilight 5:53 AM CST 7:58 PM CST
Moon 3:18 AM CST (2/24) 1:37 PM CST (2/24)
Length of Visible Light 12h 03m
Length of Day
11h 10m
Waning Crescent, 28% of the Moon is Illuminated
Feb 24
Waning Crescent
Mar 1
New
Mar 8
First Quarter
Mar 16
Full
Mar 23
Last Quarter

Hourly Weather History & Observations

Time (CST) Temp. Windchill Dew Point Humidity Pressure Visibility Wind Dir Wind Speed Gust Speed Precip Events Conditions
12:54 AM 19.9 °F 7.3 °F 16.0 °F 85% 30.27 in 10.0 mi East 12.7 mph - N/A   Clear
1:54 AM 19.0 °F 8.2 °F 14.0 °F 81% 30.28 in 10.0 mi East 9.2 mph - N/A   Clear
2:54 AM 17.1 °F 6.6 °F 14.0 °F 88% 30.26 in 10.0 mi East 8.1 mph - N/A   Clear
3:54 AM 16.0 °F 8.8 °F 12.0 °F 84% 30.26 in 10.0 mi East 4.6 mph - N/A   Clear
4:54 AM 15.1 °F 9.4 °F 12.0 °F 88% 30.25 in 10.0 mi East 3.5 mph - N/A   Clear
5:54 AM 14.0 °F 6.5 °F 10.9 °F 88% 30.25 in 10.0 mi East 4.6 mph - N/A   Clear
6:54 AM 14.0 °F 6.5 °F 10.0 °F 84% 30.25 in 10.0 mi East 4.6 mph - N/A   Clear
7:54 AM 15.1 °F 7.7 °F 12.0 °F 88% 30.25 in 10.0 mi East 4.6 mph - N/A   Clear
8:54 AM 19.9 °F 10.1 °F 15.1 °F 81% 30.25 in 10.0 mi SE 8.1 mph - N/A   Clear
9:54 AM 24.1 °F 13.7 °F 16.0 °F 71% 30.22 in 10.0 mi SSE 10.4 mph - N/A   Clear
10:54 AM 30.0 °F 20.5 °F 18.0 °F 61% 30.19 in 10.0 mi SSE 11.5 mph - N/A   Clear
11:54 AM 35.1 °F 24.5 °F 19.0 °F 52% 30.14 in 10.0 mi South 18.4 mph 23.0 mph N/A   Clear
12:54 PM 39.9 °F 31.8 °F 21.0 °F 47% 30.11 in 10.0 mi SSW 15.0 mph 20.7 mph N/A   Clear
1:54 PM 42.1 °F 34.5 °F 21.0 °F 43% 30.06 in 10.0 mi South 15.0 mph - N/A   Clear
2:54 PM 45.0 °F 38.2 °F 21.0 °F 39% 30.03 in 10.0 mi SSW 15.0 mph - N/A   Clear
3:54 PM 46.9 °F - 21.9 °F 37% 30.01 in 10.0 mi South 11.5 mph - N/A   Clear
4:54 PM 48.9 °F - 21.9 °F 35% 30.01 in 10.0 mi ESE 4.6 mph - N/A   Clear
5:54 PM 46.9 °F - 23.0 °F 39% 30.02 in 10.0 mi East 5.8 mph - N/A   Clear
6:54 PM 36.0 °F 31.1 °F 21.0 °F 55% 30.06 in 10.0 mi East 5.8 mph - N/A   Clear
7:54 PM 32.0 °F 24.2 °F 21.0 °F 64% 30.12 in 10.0 mi ENE 9.2 mph - N/A   Clear
8:54 PM 34.0 °F 24.6 °F 21.0 °F 59% 30.17 in 10.0 mi NE 13.8 mph - N/A   Clear
9:54 PM 30.0 °F 14.7 °F 21.0 °F 69% 30.25 in 10.0 mi NNE 31.1 mph 39.1 mph N/A   Clear
10:54 PM 26.1 °F 10.4 °F 18.0 °F 71% 30.31 in 10.0 mi NNE 26.5 mph 34.5 mph N/A   Clear
11:54 PM 25.0 °F 9.2 °F 17.1 °F 72% 30.30 in 10.0 mi NNE 25.3 mph - N/A   Clear